Weather reports worldwide

Advertisment
Pershore college of horticulture, United Kingdom (99059): temperature & dewpoint: 16.06.2018 14:00:00 - 22.06.2018 14:00:00 (BST)Pershore college of horticulture, United Kingdom (99059): temperature -20cm & temperature -100cm: 16.06.2018 14:00:00 - 22.06.2018 14:00:00 (BST)Pershore college of horticulture, United Kingdom (99059): precipitation: 16.06.2018 14:00:00 - 22.06.2018 14:00:00 (BST)
Date & Time tt [°C] td [°C] tt -20cm [°C] tt -100cm [°C] rr [mm]
22.06.2018 14:00:00 18,1 7,3 - - 0,0
22.06.2018 13:00:00 17,9 8,2 - - 0,0
22.06.2018 12:00:00 16,9 7,6 - - 0,0
22.06.2018 11:00:00 16,3 8,8 - - 0,0
22.06.2018 10:00:00 14,6 7,9 16,5 15,4 0,0
22.06.2018 09:00:00 14,2 9,2 - - 0,0
22.06.2018 08:00:00 11,8 7,8 - - 0,0
22.06.2018 07:00:00 9,9 7,9 - - 0,0
22.06.2018 06:00:00 7,1 6,8 - - 0,0
22.06.2018 05:00:00 6,3 5,9 - - 0,0
22.06.2018 04:00:00 6,4 5,7 - - 0,0
22.06.2018 03:00:00 6,9 5,9 - - 0,0
22.06.2018 02:00:00 7,2 5,1 - - 0,0
22.06.2018 01:00:00 7,3 5,1 - - 0,0
22.06.2018 00:00:00 9,6 5,0 - - 0,0
21.06.2018 23:00:00 10,3 5,4 - - 0,0
21.06.2018 22:00:00 10,9 5,0 - - 0,0
21.06.2018 21:00:00 13,8 4,3 - - 0,0
21.06.2018 20:00:00 15,5 3,8 - - 0,0
21.06.2018 19:00:00 17,2 4,7 - - 0,0
21.06.2018 18:00:00 17,5 3,8 - - 0,0
21.06.2018 17:00:00 17,8 5,0 - - 0,0
21.06.2018 16:00:00 17,5 3,2 - - 0,0
21.06.2018 15:00:00 17,1 4,4 - - 0,0
21.06.2018 14:00:00 16,5 4,8 - - 0,0
21.06.2018 13:00:00 16,3 5,2 - - 0,0
21.06.2018 12:00:00 16,4 5,1 - - 0,0
21.06.2018 11:00:00 14,9 5,0 - - 0,0
21.06.2018 10:00:00 14,1 4,6 17,0 15,4 0,0
21.06.2018 09:00:00 13,4 5,1 - - 0,0
21.06.2018 08:00:00 12,4 5,1 - - 0,0
21.06.2018 07:00:00 11,3 5,1 - - 0,0
21.06.2018 06:00:00 10,3 6,2 - - 0,0
21.06.2018 05:00:00 8,8 6,2 - - 0,0
21.06.2018 04:00:00 8,5 6,5 - - 0,0
21.06.2018 03:00:00 9,2 6,9 - - 0,0
21.06.2018 02:00:00 9,2 7,0 - - 0,0
21.06.2018 01:00:00 9,3 7,0 - - 0,0
21.06.2018 00:00:00 11,4 6,7 - - 0,0
20.06.2018 23:00:00 12,9 6,7 - - 0,0
20.06.2018 22:00:00 13,2 6,7 - - 0,0
20.06.2018 21:00:00 14,6 6,8 - - 0,0
20.06.2018 20:00:00 15,2 8,4 - - 0,0
20.06.2018 19:00:00 16,2 10,5 - - 0,0
20.06.2018 18:00:00 18,2 12,7 - - 0,0
20.06.2018 17:00:00 20,8 14,1 - - 0,0
20.06.2018 16:00:00 21,9 14,3 - - 0,0
20.06.2018 15:00:00 20,9 14,9 - - 0,0
20.06.2018 14:00:00 22,7 16,4 - - 0,0
20.06.2018 13:00:00 19,8 16,6 - - 0,0
20.06.2018 12:00:00 18,5 15,9 - - 0,0
20.06.2018 11:00:00 19,9 16,2 - - 0,0
20.06.2018 10:00:00 19,8 15,7 17,7 15,2 0,0
20.06.2018 09:00:00 19,4 16,0 - - 0,0
20.06.2018 08:00:00 18,1 15,1 - - 0,0
20.06.2018 07:00:00 17,0 14,9 - - 0,0
20.06.2018 06:00:00 16,4 14,5 - - 0,0
20.06.2018 05:00:00 15,7 14,6 - - 0,0
20.06.2018 04:00:00 15,4 14,2 - - 0,0
20.06.2018 03:00:00 15,1 14,3 - - 0,0
20.06.2018 02:00:00 16,5 14,5 - - 0,0
20.06.2018 01:00:00 16,2 15,1 - - 0,0
20.06.2018 00:00:00 15,9 15,1 - - 0,0
19.06.2018 23:00:00 16,7 15,3 - - 0,0
19.06.2018 22:00:00 18,0 15,5 - - 0,0
19.06.2018 21:00:00 19,4 15,7 - - 0,0
19.06.2018 20:00:00 20,2 16,0 - - 0,0
19.06.2018 19:00:00 20,9 15,7 - - 0,0
19.06.2018 18:00:00 21,4 15,9 - - 0,0
19.06.2018 17:00:00 21,7 16,4 - - 0,0
19.06.2018 16:00:00 21,5 16,3 - - 0,0
19.06.2018 15:00:00 21,0 16,5 - - 0,0
19.06.2018 14:00:00 22,4 17,0 - - 0,0
19.06.2018 13:00:00 21,2 16,7 - - 0,0
19.06.2018 12:00:00 20,5 15,9 - - 0,0
19.06.2018 11:00:00 20,5 15,8 - - 0,0
19.06.2018 10:00:00 19,6 15,6 17,2 15,2 0,0
19.06.2018 09:00:00 18,3 15,2 - - 0,0
19.06.2018 08:00:00 16,9 15,0 - - 0,0
19.06.2018 07:00:00 16,3 14,8 - - 0,0
19.06.2018 06:00:00 15,9 14,4 - - 0,0
19.06.2018 05:00:00 16,2 13,7 - - 0,0
19.06.2018 04:00:00 16,3 13,8 - - 0,0
19.06.2018 03:00:00 16,4 13,8 - - 0,0
19.06.2018 02:00:00 16,6 13,8 - - 0,0
19.06.2018 01:00:00 16,5 13,7 - - 0,0
19.06.2018 00:00:00 17,0 14,2 - - 0,0
18.06.2018 23:00:00 17,4 14,6 - - 0,0
18.06.2018 22:00:00 17,4 15,0 - - 0,0
18.06.2018 21:00:00 17,5 15,1 - - 0,0
18.06.2018 20:00:00 18,5 15,3 - - 0,0
18.06.2018 19:00:00 18,7 15,3 - - 0,0
18.06.2018 18:00:00 19,0 15,0 - - 0,0
18.06.2018 17:00:00 19,4 15,0 - - 0,0
18.06.2018 16:00:00 19,7 14,5 - - 0,0
18.06.2018 15:00:00 19,5 13,6 - - 0,0
18.06.2018 14:00:00 19,6 13,3 - - 0,0
18.06.2018 13:00:00 21,5 12,6 - - 0,0
18.06.2018 12:00:00 21,0 12,1 - - 0,0
18.06.2018 11:00:00 19,8 10,4 - - 0,0
18.06.2018 10:00:00 17,6 10,7 16,7 15,2 0,0
18.06.2018 09:00:00 18,1 12,3 - - 0,0
18.06.2018 08:00:00 15,7 13,4 - - 0,0
18.06.2018 07:00:00 14,8 13,1 - - 0,0
18.06.2018 06:00:00 14,0 12,7 - - 0,0
18.06.2018 05:00:00 13,5 12,5 - - 0,0
18.06.2018 04:00:00 14,1 12,2 - - 0,0
18.06.2018 03:00:00 14,7 13,0 - - 0,0
18.06.2018 02:00:00 14,8 13,5 - - 0,0
18.06.2018 01:00:00 15,3 14,2 - - 0,0
18.06.2018 00:00:00 15,6 14,2 - - 0,0
17.06.2018 23:00:00 15,9 14,3 - - 0,0
17.06.2018 22:00:00 16,3 14,6 - - 0,0
17.06.2018 21:00:00 16,8 14,8 - - 0,0
17.06.2018 20:00:00 17,0 14,9 - - 0,0
17.06.2018 19:00:00 16,6 14,6 - - 0,0
17.06.2018 18:00:00 16,7 13,7 - - 0,0
17.06.2018 17:00:00 16,9 13,5 - - 0,0
17.06.2018 16:00:00 16,7 12,4 - - 0,0
17.06.2018 15:00:00 17,2 12,3 - - 0,0
17.06.2018 14:00:00 16,8 12,1 - - 0,0
17.06.2018 13:00:00 16,2 11,8 - - 0,0
17.06.2018 12:00:00 15,0 11,9 - - 0,0
17.06.2018 11:00:00 17,2 11,7 - - 0,0
17.06.2018 10:00:00 15,9 12,2 16,7 15,2 0,0
17.06.2018 09:00:00 14,2 13,0 - - 0,0
17.06.2018 08:00:00 13,1 12,6 - - 0,4
17.06.2018 07:00:00 12,4 11,8 - - 0,6
17.06.2018 06:00:00 12,3 11,4 - - 0,2
17.06.2018 05:00:00 12,3 11,0 - - 0,0
17.06.2018 04:00:00 12,7 10,4 - - 0,0
17.06.2018 03:00:00 12,6 10,0 - - 0,0
17.06.2018 02:00:00 12,5 9,9 - - 0,0
17.06.2018 01:00:00 12,6 9,8 - - 0,0
17.06.2018 00:00:00 13,2 9,8 - - 0,0
16.06.2018 23:00:00 13,3 9,7 - - 0,0
16.06.2018 22:00:00 13,9 9,6 - - 0,0
16.06.2018 21:00:00 15,3 8,8 - - 0,0
16.06.2018 20:00:00 16,4 9,7 - - 0,0
16.06.2018 19:00:00 18,9 9,7 - - 0,0
16.06.2018 18:00:00 19,7 12,5 - - 0,0
16.06.2018 17:00:00 19,1 14,3 - - 0,0
16.06.2018 16:00:00 17,3 13,8 - - 0,0
16.06.2018 15:00:00 16,8 12,7 - - 0,0
16.06.2018 14:00:00 17,5 12,0 - - 0,0

tt = temperature
td = dewpoint
tt -20cm = temperature -20cm
tt -100cm = temperature -100cm
rr = precipitation

Next stations